Regional Weather Roundup
Issued by NWS

Home | Current Version | Previous Version | Text Only | Print | Product List | Glossary Off
Versions: 1 2 3 4 5 6 7 8 9 10 11 12 13 14 15 16 17 18 19 20 21 22 23 24 25 26 27 28 29 30 31 32 33 34 35 36 37 38 39 40 41 42 43 44 45 46 47 48 49 50

981
ASUS44 KJAN 280703
RWRMS

MISSISSIPPI HOURLY WEATHER ROUNDUP
NATIONAL WEATHER SERVICE JACKSON MS
100 AM CST WED JAN 28 2015

NOTE: "FAIR: INDICATES FEW OR NO CLOUDS BELOW 12,000 FEET WITH NO
SIGNIFICANT WEATHER AND/OR OBSTRUCTIONS TO VISIBILITY.

MSZ001>002-007>008-010>013-018>021-025>028-034>036-280800-
NORTHWEST MISSISSIPPI

CITY           SKY/WX    TMP DP  RH WIND       PRES   REMARKS
CLARKSDALE     FAIR      41  36  81 E7        30.21S
CLEVELAND      FAIR      43  38  82 CALM      30.21R
GREENWOOD      CLEAR     43  35  73 E9        30.19F
GREENVILLE     CLEAR     46  37  71 E9        30.19F
GRENADA        FAIR      36  32  87 CALM      30.22S
OLIVE BRANCH   CLEAR     36  34  93 CALM      30.23R
OXFORD         FAIR      37  30  75 CALM      30.23R
TUNICA         SUNNY     36  34  93 E5        30.23F WCI  32
$$

MSZ003>006-009-014>017-022>024-029>033-037>039-280800-
NORTHEAST MISSISSIPPI

CITY           SKY/WX    TMP DP  RH WIND       PRES   REMARKS
COLUMBUS AFB   CLEAR     35  29  77 NW1       30.22S
CORINTH        FAIR      36  28  75 NE3       30.21S
GOLDN TRIANGLE CLEAR     37  30  75 N3        30.20F
STARKVILLE     FAIR      34  32  93 CALM      30.22S
TUPELO         CLEAR     37  29  72 CALM      30.22S
$$

MSZ040-058-280800-
CENTRAL MISSISSIPPI

CITY           SKY/WX    TMP DP  RH WIND       PRES   REMARKS
JACKSON INTL   CLEAR     46  36  68 NE8       30.19F
JACKSON HAWKNS CLEAR     45  35  68 E3        30.19F
MERIDIAN KEY   CLEAR     35  32  88 CALM      30.21R
MERIDIAN NAS   CLEAR     41  33  73 N5        30.21S
RAYMOND        FAIR      36  32  87 MISG      30.19F
VICKSBURG      CLEAR     39  36  89 SE3       30.19F
$$

MSZ059>079-280800-
SOUTH MISSISSIPPI

CITY           SKY/WX    TMP DP  RH WIND       PRES   REMARKS
BROOKHAVEN       N/A     39  36  87 CALM      30.20F
HATTIESBURG    CLEAR     41  37  86 CALM      30.20S
MCCOMB         CLEAR     51  34  52 N6        30.19R
NATCHEZ        CLEAR     50  36  57 E6        30.19S
PINE BELT      CLEAR     46  34  61 N9        30.19S
$$

MSZ080>082-280800-
COASTAL MISSISSIPPI

CITY           SKY/WX    TMP DP  RH WIND       PRES   REMARKS
BILOXI         NOT AVBL
PASCAGOULA     CLEAR     45  37  73 CALM      30.17S
GULFPORT       CLEAR     50  34  54 N6        30.17S
$$



USA.gov is the U.S. government's official web portal to all federal, state and local government web resources and services.